Weather in Makaryevskoe

Russia / Altai Krai     52°33′04″N   86°27′23″E
temp.,
°C
wind,
m/s
gust,
m/s
humid.,
%
clouds,
%
prec.,
mm/h
press.,
hPa
HPBL,
m
19 may, wed
wed1901:00+13se119699 2.7 100622
04:00+12sw31198100 2.6 1005405
07:00+13sw2896100 4.5 1004393
10:00+16wsw4990100 1.6 1003602
13:00+17w5988100 4.4 10021028
16:00+11n4994100 3.8 1004729
19:00+10nw2794100 4.8 1007760
22:00+9wsw219298 1.2 100935
20 may, thu
thu2001:00+8wnw1189100 1.3 100810
04:00+5n259299 0.1 1008192
07:00+2nnw51198100 0.7 1010510
10:00+4wnw4688100 3.3 1012931
13:00+9nw4744100 3.9 10132505
16:00+9nw554294 0.1 10132154
19:00+5wnw3584100 0.9 1016710
22:00+3wnw1393100 1.1 1018226
21 may, fri
fri2101:00+1sw119199 1.9 101918
04:00−1wsw119598 0.5 102111
07:00+1sw229198 0.6 1024160
10:00+5wsw33685 0.1 10251040
13:00+8wnw224865 0.4 10251808
16:00+9wnw224668 0.5 10241759
19:00+9w214623 0.5 10251510
22:00+2s11833 0.0 102810
22 may, sat
sat2201:00+1ese11901 0.0 102910
04:000se21942 0.0 102915
07:00+3ese12795 0.0 1029126
10:00+10e235096 0.0 1029855
13:00+14e12385 0.0 10271603
16:00+15nw21365 0.0 10252012
19:00+13nnw23505 0.0 1026536
22:00+6ese116515 0.0 102810
23 may, sun
sun2301:00+5se116814 0.0 102810
04:00+3se21735 0.0 102812
07:00+6ese12705 0.0 102897
10:00+14ese224715 0.0 1027675
13:00+19ese12325 0.0 10251356
16:00+20e22335 0.0 10241615
19:00+19n12545 0.0 1023149
22:00+11e11760 0.0 102210